TimeCST,TemperatureF,Dew PointF,Humidity,Sea Level PressureIn,VisibilityMPH,Wind Direction,Wind SpeedMPH,Gust SpeedMPH,PrecipitationIn,Events,Conditions,WindDirDegrees,DateUTC
12:15 AM,35.2,29.8,81,30.11,10.0,Calm,Calm,-,N/A,,Clear,0,2013-02-04 06:15:00
12:35 AM,35.8,31.1,83,30.11,10.0,Calm,Calm,-,N/A,,Clear,0,2013-02-04 06:35:00
12:55 AM,34.7,30.4,84,30.11,10.0,Calm,Calm,-,N/A,,Clear,0,2013-02-04 06:55:00
1:15 AM,34.7,31.1,87,30.11,10.0,Calm,Calm,-,N/A,,Clear,0,2013-02-04 07:15:00
1:35 AM,34.7,30.7,85,30.10,10.0,Calm,Calm,-,N/A,,Clear,0,2013-02-04 07:35:00
1:55 AM,35.6,31.3,84,30.09,10.0,Calm,Calm,-,N/A,,Clear,0,2013-02-04 07:55:00
2:15 AM,34.7,30.6,85,30.08,10.0,Calm,Calm,-,N/A,,Clear,0,2013-02-04 08:15:00
2:35 AM,34.7,30.9,86,30.09,10.0,Calm,Calm,-,N/A,,Clear,0,2013-02-04 08:35:00
2:55 AM,34.7,31.1,87,30.09,10.0,Calm,Calm,-,N/A,,Clear,0,2013-02-04 08:55:00
3:15 AM,34.7,30.4,84,30.09,10.0,Calm,Calm,-,N/A,,Clear,0,2013-02-04 09:15:00
5:15 AM,34.7,31.5,88,30.10,10.0,Calm,Calm,-,N/A,,Clear,0,2013-02-04 11:15:00
5:35 AM,34.7,31.6,89,30.10,10.0,Calm,Calm,-,N/A,,Clear,0,2013-02-04 11:35:00
5:55 AM,36.7,31.5,81,30.09,10.0,Calm,Calm,-,N/A,,Clear,0,2013-02-04 11:55:00
6:15 AM,37.0,31.3,80,30.10,10.0,Calm,Calm,-,N/A,,Clear,0,2013-02-04 12:15:00
6:55 AM,34.7,30.4,84,30.13,10.0,Calm,Calm,-,N/A,,Clear,0,2013-02-04 12:55:00
7:15 AM,35.8,31.8,86,30.13,10.0,Calm,Calm,-,N/A,,Clear,0,2013-02-04 13:15:00
7:35 AM,37.0,32.4,83,30.14,10.0,Calm,Calm,-,N/A,,Clear,0,2013-02-04 13:35:00
7:55 AM,37.2,32.5,83,30.14,10.0,Calm,Calm,-,N/A,,Clear,0,2013-02-04 13:55:00
8:15 AM,39.6,31.8,74,30.14,10.0,NE,3.5,-,N/A,,Clear,50,2013-02-04 14:15:00
8:35 AM,40.8,31.6,70,30.12,10.0,East,3.5,-,N/A,,Clear,100,2013-02-04 14:35:00
8:55 AM,41.7,31.6,67,30.13,10.0,Calm,Calm,-,N/A,,Clear,0,2013-02-04 14:55:00
9:15 AM,42.3,31.1,65,30.13,10.0,Calm,Calm,-,N/A,,Clear,0,2013-02-04 15:15:00
9:35 AM,42.3,30.2,62,30.13,10.0,Calm,Calm,-,N/A,,Clear,0,2013-02-04 15:35:00
9:55 AM,43.9,30.2,59,30.13,10.0,Calm,Calm,-,N/A,,Clear,0,2013-02-04 15:55:00
10:15 AM,44.6,30.6,58,30.14,10.0,Calm,Calm,-,N/A,,Clear,0,2013-02-04 16:15:00
10:35 AM,47.3,32.0,55,30.14,10.0,Calm,Calm,-,N/A,,Clear,0,2013-02-04 16:35:00
3:15 PM,54.7,28.0,36,30.03,10.0,SSW,4.6,-,N/A,,Clear,200,2013-02-04 21:15:00
3:35 PM,54.7,27.9,36,30.03,10.0,WSW,3.5,-,N/A,,Clear,250,2013-02-04 21:35:00
3:55 PM,54.7,28.0,36,30.04,10.0,WSW,5.8,-,N/A,,Clear,240,2013-02-04 21:55:00
5:35 PM,51.4,34.2,52,30.04,10.0,Calm,Calm,-,N/A,,Clear,0,2013-02-04 23:35:00
5:55 PM,49.6,34.9,57,30.03,10.0,Calm,Calm,-,N/A,,Clear,0,2013-02-04 23:55:00
6:15 PM,49.6,37.9,64,30.04,10.0,Calm,Calm,-,N/A,,Clear,0,2013-02-05 00:15:00
6:35 PM,49.6,38.3,65,30.04,10.0,Calm,Calm,-,N/A,,Clear,0,2013-02-05 00:35:00
6:55 PM,49.6,39.0,67,30.04,10.0,Calm,Calm,-,N/A,,Clear,0,2013-02-05 00:55:00
7:15 PM,49.6,39.7,69,30.04,10.0,Calm,Calm,-,N/A,,Clear,0,2013-02-05 01:15:00
7:35 PM,47.3,38.1,70,30.04,10.0,Calm,Calm,-,N/A,,Clear,0,2013-02-05 01:35:00
7:55 PM,43.7,36.5,76,30.04,10.0,Calm,Calm,-,N/A,,Clear,0,2013-02-05 01:55:00
8:15 PM,44.2,36.7,75,30.04,10.0,Calm,Calm,-,N/A,,Clear,0,2013-02-05 02:15:00
8:35 PM,46.8,38.5,73,30.04,10.0,Calm,Calm,-,N/A,,Clear,0,2013-02-05 02:35:00
8:55 PM,43.7,35.8,74,30.03,10.0,Calm,Calm,-,N/A,,Clear,0,2013-02-05 02:55:00
9:15 PM,42.3,36.0,78,30.04,10.0,Calm,Calm,-,N/A,,Clear,0,2013-02-05 03:15:00
9:35 PM,42.6,36.9,80,30.02,10.0,Calm,Calm,-,N/A,,Clear,0,2013-02-05 03:35:00
9:55 PM,41.2,36.1,82,30.02,10.0,Calm,Calm,-,N/A,,Clear,0,2013-02-05 03:55:00
10:15 PM,41.2,36.1,82,30.02,10.0,Calm,Calm,-,N/A,,Clear,0,2013-02-05 04:15:00
10:35 PM,41.0,36.3,83,30.01,10.0,Calm,Calm,-,N/A,,Clear,0,2013-02-05 04:35:00
10:55 PM,42.1,36.7,81,30.02,10.0,Calm,Calm,-,N/A,,Clear,0,2013-02-05 04:55:00
11:15 PM,41.0,36.7,85,30.01,10.0,Calm,Calm,-,N/A,,Clear,0,2013-02-05 05:15:00
11:35 PM,41.0,36.7,85,30.01,10.0,Calm,Calm,-,N/A,,Clear,0,2013-02-05 05:35:00
11:55 PM,41.0,36.5,84,30.01,10.0,Calm,Calm,-,N/A,,Scattered Clouds,0,2013-02-05 05:55:00